This demonstration page uses our WeatherBlox Daily Observations layout. Learn more.

Left ArrowRight Arrow

30.21309, -93.2044

Hourly Observations for February 20, 2022

Temp ( °F °C ) Dew Point ( °F °C ) Humidity (%) Winds ( mph kmh ) Pressure ( in mb ) Visibility ( mi km ) Precip ( " mm )
12:15 am 00:15 Clear 43 6.3 37 2.6 77 77 Calm 30.33 1027 10 16 0.00 0.00
12:35 am 00:35 Clear 46 7.6 37 2.5 70 70 Calm 30.33 1027 10 16 0.00 0.00
12:55 am 00:55 Clear 45 7.3 37 2.5 72 72 Calm 30.32 1027 10 16 0.00 0.00
1:15 am 01:15 Clear 45 7.1 37 2.8 74 74 Calm 30.33 1027 10 16 0.00 0.00
1:35 am 01:35 Clear 44 6.8 37 2.8 76 76 Calm 30.32 1027 10 16 0.00 0.00
1:55 am 01:55 Clear 44 6.5 37 3 79 79 Calm 30.31 1026 10 16 0.00 0.00
2:15 am 02:15 Clear 44 6.8 37 2.8 76 76 Calm 30.31 1026 10 16 0.00 0.00
2:35 am 02:35 Clear 44 6.6 37 3 78 78 Calm 30.30 1026 10 16 0.00 0.00
2:55 am 02:55 Clear 42 5.6 37 2.6 81 81 Calm 30.29 1026 10 16 0.00 0.00
3:15 am 03:15 Mostly Cloudy 41 5.2 38 3.1 86 86 Calm 30.28 1025 10 16 0.00 0.00
3:35 am 03:35 Cloudy 42 5.5 39 3.9 90 90 Calm 30.28 1025 10 16 0.00 0.00
3:55 am 03:55 Partly Cloudy 43 6 39 4 87 87 Calm 30.27 1025 10 16 0.00 0.00
4:15 am 04:15 Clear 42 5.5 39 4 90 90 Calm 30.26 1025 10 16 0.00 0.00
4:35 am 04:35 Clear 41 4.8 38 3.2 90 90 Calm 30.26 1025 10 16 0.00 0.00
4:55 am 04:55 Clear 41 5.1 38 3.6 90 90 Calm 30.27 1025 10 16 0.00 0.00
5:15 am 05:15 Partly Cloudy 40 4.6 38 3.2 91 91 Calm 30.27 1025 10 16 0.00 0.00
5:35 am 05:35 Mostly Cloudy 44 6.6 40 4.2 85 85 Calm 30.27 1025 10 16 0.00 0.00
6:00 am 06:00 Cloudy 45 7 39 4 81 81 NNE 3 6 30.27 1025 10 16 0.00 0.00
6:53 am 06:53 Cloudy 46 8 39 4 76 76 Calm 30.29 1026 10 16 0.00 0.00
7:53 am 07:53 Cloudy 48 9 41 5 76 76 Calm 30.29 1026 10 16 0.00 0.00
8:54 am 08:54 Cloudy 52 11 43 6 72 72 Calm 30.30 1026 10 16 0.00 0.00
9:54 am 09:54 Mostly Cloudy 57 14 37 3 48 48 SE 9 15 30.30 1026 10 16 0.00 0.00
10:52 am 10:52 Cloudy 61 16 37 3 42 42 ESE 8 13 30.30 1026 10 16 0.00 0.00
11:45 am 11:45 Cloudy 63 17 39 4 42 42 SSE 10 17 30.28 1025 10 16 0.00 0.00
12:45 pm 12:45 Cloudy 63 17 43 6 49 49 ESE 8 13 30.25 1024 10 16 0.00 0.00
1:45 pm 13:45 Cloudy 64 18 48 9 56 56 SSE 12 19 30.21 1023 10 16 0.00 0.00
2:45 pm 14:45 Cloudy 66 19 50 10 56 56 SSE 10 17 30.19 1022 10 16 0.00 0.00
4:45 pm 16:45 Mostly Cloudy 66 19 54 12 64 64 SSE 10 17 30.15 1021 10 16 0.00 0.00
5:45 pm 17:45 Cloudy 64 18 54 12 68 68 SSE 9 15 30.15 1021 10 16 0.00 0.00
6:55 pm 18:55 Cloudy 63 17 54 12 73 73 SE 8 13 30.15 1021 10 16 0.00 0.00
7:45 pm 19:45 Cloudy 63 17 55 13 77 77 SE 8 13 30.15 1021 10 16 0.00 0.00
8:45 pm 20:45 Cloudy 63 17 55 13 77 77 SE 8 13 30.14 1021 10 16 0.00 0.00
9:45 pm 21:45 Cloudy 63 17 55 13 77 77 SE 8 13 30.14 1021 10 16 0.00 0.00
10:15 pm 22:15 Cloudy 63 17.1 56 13.4 79 79 SE 9 15 30.13 1020 10 16 0.00 0.00
10:35 pm 22:35 Cloudy 63 17.1 56 13.6 80 80 SSE 10 17 30.12 1020 10 16 0.00 0.00
10:55 pm 22:55 Cloudy 63 17.2 57 13.7 80 80 SSE 12 19 30.12 1020 10 16 0.00 0.00
11:15 pm 23:15 Cloudy 63 17.3 57 13.9 81 81 SSE 14 22 30.12 1020 10 16 0.00 0.00
11:35 pm 23:35 Cloudy 63 17.4 57 14.1 81 81 SSE 14 22 30.10 1019 10 16 0.00 0.00
11:55 pm 23:55 Cloudy 63 17.3 58 14.2 82 82 SSE 10 17 30.11 1020 10 16 0.00 0.00

Powered by AerisWeather